Location: Waco, TX
(31.5480°N, 97.1670°W)
Time: 00:29:42
(UTC-06:00)

ISS - Pass Details

Date: 09 December 2017
Orbit: 403 x 407 km, 51.6° (Epoch: 12 December)

Event Time Altitude Azimuth Distance (km) Brightness Sun altitude
Rises 22:18:18 0° 295° (WNW) 2,318 - -61.4°
Reaches altitude 10° 22:21:01 10° 270° (W) 1,454 - -62.0°
Maximum altitude 22:22:57 15° 234° (SW) 1,190 - -62.4°
Drops below altitude 10° 22:24:54 10° 197° (SSW) 1,447 - -62.8°
Sets 22:27:35 0° 172° (S) 2,300 - -63.4°
